﻿測定場所 (Monitoring sites),日付 (Measurement date),時間 (Measurement time),線量率 最大値 (max) μGy/h,線量率 最小値 (min) μGy/h,線量率 平均値 (average) μGy/h,
足立 (Adachi),2019-03-10,23:01～24:00,0.0395,0.0344,0.0364,
足立 (Adachi),2019-03-10,22:01～23:00,0.0400,0.0324,0.0359,
足立 (Adachi),2019-03-10,21:01～22:00,0.0348,0.0289,0.0317,
足立 (Adachi),2019-03-10,20:01～21:00,0.0318,0.0283,0.0298,
足立 (Adachi),2019-03-10,19:01～20:00,0.0306,0.0275,0.0292,
足立 (Adachi),2019-03-10,18:01～19:00,0.0311,0.0282,0.0293,
足立 (Adachi),2019-03-10,17:01～18:00,0.0310,0.0264,0.0294,
足立 (Adachi),2019-03-10,16:01～17:00,0.0317,0.0273,0.0292,
足立 (Adachi),2019-03-10,15:01～16:00,0.0313,0.0274,0.0293,
足立 (Adachi),2019-03-10,14:01～15:00,0.0316,0.0282,0.0299,
足立 (Adachi),2019-03-10,13:01～14:00,0.0329,0.0277,0.0304,
足立 (Adachi),2019-03-10,12:01～13:00,0.0317,0.0278,0.0299,
足立 (Adachi),2019-03-10,11:01～12:00,0.0331,0.0288,0.0308,
足立 (Adachi),2019-03-10,10:01～11:00,0.0331,0.0288,0.0311,
足立 (Adachi),2019-03-10,09:01～10:00,0.0328,0.0283,0.0311,
足立 (Adachi),2019-03-10,08:01～09:00,0.0333,0.0297,0.0312,
足立 (Adachi),2019-03-10,07:01～08:00,0.0334,0.0287,0.0311,
足立 (Adachi),2019-03-10,06:01～07:00,0.0330,0.0290,0.0312,
足立 (Adachi),2019-03-10,05:01～06:00,0.0337,0.0286,0.0309,
足立 (Adachi),2019-03-10,04:01～05:00,0.0326,0.0286,0.0304,
足立 (Adachi),2019-03-10,03:01～04:00,0.0322,0.0280,0.0302,
足立 (Adachi),2019-03-10,02:01～03:00,0.0312,0.0280,0.0295,
足立 (Adachi),2019-03-10,01:01～02:00,0.0314,0.0273,0.0294,
足立 (Adachi),2019-03-10,00:01～01:00,0.0307,0.0271,0.0293,
足立 (Adachi),2019-03-09,23:01～24:00,0.0313,0.0270,0.0295,
足立 (Adachi),2019-03-09,22:01～23:00,0.0315,0.0280,0.0294,
足立 (Adachi),2019-03-09,21:01～22:00,0.0317,0.0275,0.0294,
足立 (Adachi),2019-03-09,20:01～21:00,0.0313,0.0271,0.0295,
足立 (Adachi),2019-03-09,19:01～20:00,0.0312,0.0264,0.0292,
足立 (Adachi),2019-03-09,18:01～19:00,0.0308,0.0271,0.0290,
足立 (Adachi),2019-03-09,17:01～18:00,0.0312,0.0275,0.0294,
足立 (Adachi),2019-03-09,16:01～17:00,0.0317,0.0266,0.0293,
足立 (Adachi),2019-03-09,15:01～16:00,0.0308,0.0269,0.0293,
足立 (Adachi),2019-03-09,14:01～15:00,0.0320,0.0279,0.0294,
足立 (Adachi),2019-03-09,13:01～14:00,0.0316,0.0279,0.0296,
足立 (Adachi),2019-03-09,12:01～13:00,0.0324,0.0271,0.0296,
足立 (Adachi),2019-03-09,11:01～12:00,0.0324,0.0281,0.0300,
足立 (Adachi),2019-03-09,10:01～11:00,0.0322,0.0287,0.0304,
足立 (Adachi),2019-03-09,09:01～10:00,0.0321,0.0285,0.0304,
足立 (Adachi),2019-03-09,08:01～09:00,0.0322,0.0284,0.0304,
足立 (Adachi),2019-03-09,07:01～08:00,0.0318,0.0278,0.0299,
足立 (Adachi),2019-03-09,06:01～07:00,0.0321,0.0277,0.0299,
足立 (Adachi),2019-03-09,05:01～06:00,0.0310,0.0282,0.0296,
足立 (Adachi),2019-03-09,04:01～05:00,0.0309,0.0277,0.0296,
足立 (Adachi),2019-03-09,03:01～04:00,0.0311,0.0278,0.0294,
足立 (Adachi),2019-03-09,02:01～03:00,0.0312,0.0278,0.0296,
足立 (Adachi),2019-03-09,01:01～02:00,0.0317,0.0274,0.0294,
足立 (Adachi),2019-03-09,00:01～01:00,0.0320,0.0269,0.0295,
足立 (Adachi),2019-03-08,23:01～24:00,0.0314,0.0277,0.0297,
足立 (Adachi),2019-03-08,22:01～23:00,0.0329,0.0269,0.0295,
足立 (Adachi),2019-03-08,21:01～22:00,0.0317,0.0272,0.0293,
足立 (Adachi),2019-03-08,20:01～21:00,0.0313,0.0276,0.0293,
足立 (Adachi),2019-03-08,19:01～20:00,0.0314,0.0278,0.0297,
足立 (Adachi),2019-03-08,18:01～19:00,0.0323,0.0269,0.0293,
足立 (Adachi),2019-03-08,17:01～18:00,0.0308,0.0268,0.0289,
足立 (Adachi),2019-03-08,16:01～17:00,0.0316,0.0266,0.0292,
足立 (Adachi),2019-03-08,15:01～16:00,0.0303,0.0270,0.0290,
足立 (Adachi),2019-03-08,14:01～15:00,0.0311,0.0270,0.0291,
足立 (Adachi),2019-03-08,13:01～14:00,0.0315,0.0270,0.0293,
足立 (Adachi),2019-03-08,12:01～13:00,0.0312,0.0275,0.0291,
足立 (Adachi),2019-03-08,11:01～12:00,0.0307,0.0277,0.0293,
足立 (Adachi),2019-03-08,10:01～11:00,0.0316,0.0271,0.0289,
足立 (Adachi),2019-03-08,09:01～10:00,0.0315,0.0274,0.0291,
足立 (Adachi),2019-03-08,08:01～09:00,0.0316,0.0268,0.0292,
足立 (Adachi),2019-03-08,07:01～08:00,0.0304,0.0271,0.0288,
足立 (Adachi),2019-03-08,06:01～07:00,0.0306,0.0272,0.0289,
足立 (Adachi),2019-03-08,05:01～06:00,0.0313,0.0266,0.0291,
足立 (Adachi),2019-03-08,04:01～05:00,0.0310,0.0273,0.0291,
足立 (Adachi),2019-03-08,03:01～04:00,0.0306,0.0272,0.0288,
足立 (Adachi),2019-03-08,02:01～03:00,0.0310,0.0263,0.0289,
足立 (Adachi),2019-03-08,01:01～02:00,0.0315,0.0273,0.0293,
足立 (Adachi),2019-03-08,00:01～01:00,0.0314,0.0276,0.0293,
足立 (Adachi),2019-03-07,23:01～24:00,0.0311,0.0274,0.0294,
足立 (Adachi),2019-03-07,22:01～23:00,0.0322,0.0270,0.0302,
足立 (Adachi),2019-03-07,21:01～22:00,0.0355,0.0300,0.0327,
足立 (Adachi),2019-03-07,20:01～21:00,0.0414,0.0331,0.0376,
足立 (Adachi),2019-03-07,19:01～20:00,0.0393,0.0305,0.0354,
足立 (Adachi),2019-03-07,18:01～19:00,0.0378,0.0304,0.0335,
足立 (Adachi),2019-03-07,17:01～18:00,0.0491,0.0348,0.0412,
足立 (Adachi),2019-03-07,16:01～17:00,0.0587,0.0443,0.0535,
足立 (Adachi),2019-03-07,15:01～16:00,0.0565,0.0385,0.0486,
足立 (Adachi),2019-03-07,14:01～15:00,0.0413,0.0307,0.0349,
足立 (Adachi),2019-03-07,13:01～14:00,0.0334,0.0292,0.0310,
足立 (Adachi),2019-03-07,12:01～13:00,0.0357,0.0303,0.0324,
足立 (Adachi),2019-03-07,11:01～12:00,0.0347,0.0308,0.0327,
足立 (Adachi),2019-03-07,10:01～11:00,0.0387,0.0316,0.0344,
足立 (Adachi),2019-03-07,09:01～10:00,0.0413,0.0343,0.0369,
足立 (Adachi),2019-03-07,08:01～09:00,0.0455,0.0363,0.0408,
足立 (Adachi),2019-03-07,07:01～08:00,0.0472,0.0355,0.0403,
足立 (Adachi),2019-03-07,06:01～07:00,0.0389,0.0336,0.0358,
足立 (Adachi),2019-03-07,05:01～06:00,0.0411,0.0355,0.0375,
足立 (Adachi),2019-03-07,04:01～05:00,0.0404,0.0340,0.0360,
足立 (Adachi),2019-03-07,03:01～04:00,0.0378,0.0341,0.0359,
足立 (Adachi),2019-03-07,02:01～03:00,0.0383,0.0343,0.0364,
足立 (Adachi),2019-03-07,01:01～02:00,0.0410,0.0351,0.0371,
足立 (Adachi),2019-03-07,00:01～01:00,0.0388,0.0342,0.0364,
足立 (Adachi),2019-03-06,23:01～24:00,0.0381,0.0320,0.0352,
足立 (Adachi),2019-03-06,22:01～23:00,0.0347,0.0283,0.0311,
足立 (Adachi),2019-03-06,21:01～22:00,0.0327,0.0270,0.0302,
足立 (Adachi),2019-03-06,20:01～21:00,0.0313,0.0277,0.0298,
足立 (Adachi),2019-03-06,19:01～20:00,0.0315,0.0286,0.0299,
足立 (Adachi),2019-03-06,18:01～19:00,0.0306,0.0274,0.0291,
足立 (Adachi),2019-03-06,17:01～18:00,0.0309,0.0266,0.0292,
足立 (Adachi),2019-03-06,16:01～17:00,0.0316,0.0274,0.0292,
足立 (Adachi),2019-03-06,15:01～16:00,0.0317,0.0274,0.0294,
足立 (Adachi),2019-03-06,14:01～15:00,0.0315,0.0281,0.0297,
足立 (Adachi),2019-03-06,13:01～14:00,0.0326,0.0272,0.0302,
足立 (Adachi),2019-03-06,12:01～13:00,0.0326,0.0276,0.0300,
足立 (Adachi),2019-03-06,11:01～12:00,0.0327,0.0289,0.0303,
足立 (Adachi),2019-03-06,10:01～11:00,0.0319,0.0280,0.0298,
足立 (Adachi),2019-03-06,09:01～10:00,0.0317,0.0277,0.0297,
足立 (Adachi),2019-03-06,08:01～09:00,0.0317,0.0272,0.0295,
足立 (Adachi),2019-03-06,07:01～08:00,0.0326,0.0277,0.0296,
足立 (Adachi),2019-03-06,06:01～07:00,0.0315,0.0280,0.0297,
足立 (Adachi),2019-03-06,05:01～06:00,0.0321,0.0274,0.0298,
足立 (Adachi),2019-03-06,04:01～05:00,0.0325,0.0279,0.0299,
足立 (Adachi),2019-03-06,03:01～04:00,0.0311,0.0270,0.0296,
足立 (Adachi),2019-03-06,02:01～03:00,0.0322,0.0279,0.0300,
足立 (Adachi),2019-03-06,01:01～02:00,0.0325,0.0284,0.0304,
足立 (Adachi),2019-03-06,00:01～01:00,0.0335,0.0292,0.0309,
足立 (Adachi),2019-03-05,23:01～24:00,0.0326,0.0283,0.0303,
足立 (Adachi),2019-03-05,22:01～23:00,0.0322,0.0273,0.0299,
足立 (Adachi),2019-03-05,21:01～22:00,0.0313,0.0283,0.0298,
足立 (Adachi),2019-03-05,20:01～21:00,0.0313,0.0277,0.0297,
足立 (Adachi),2019-03-05,19:01～20:00,0.0333,0.0272,0.0298,
足立 (Adachi),2019-03-05,18:01～19:00,0.0311,0.0279,0.0295,
足立 (Adachi),2019-03-05,17:01～18:00,0.0317,0.0278,0.0296,
足立 (Adachi),2019-03-05,16:01～17:00,0.0319,0.0276,0.0295,
足立 (Adachi),2019-03-05,15:01～16:00,0.0308,0.0278,0.0296,
足立 (Adachi),2019-03-05,14:01～15:00,0.0311,0.0278,0.0295,
足立 (Adachi),2019-03-05,13:01～14:00,0.0317,0.0275,0.0296,
足立 (Adachi),2019-03-05,12:01～13:00,0.0316,0.0275,0.0298,
足立 (Adachi),2019-03-05,11:01～12:00,0.0315,0.0273,0.0296,
足立 (Adachi),2019-03-05,10:01～11:00,0.0323,0.0281,0.0298,
足立 (Adachi),2019-03-05,09:01～10:00,0.0319,0.0279,0.0296,
足立 (Adachi),2019-03-05,08:01～09:00,0.0321,0.0270,0.0295,
足立 (Adachi),2019-03-05,07:01～08:00,0.0309,0.0270,0.0291,
足立 (Adachi),2019-03-05,06:01～07:00,0.0315,0.0270,0.0292,
足立 (Adachi),2019-03-05,05:01～06:00,0.0318,0.0274,0.0295,
足立 (Adachi),2019-03-05,04:01～05:00,0.0329,0.0282,0.0302,
足立 (Adachi),2019-03-05,03:01～04:00,0.0320,0.0268,0.0300,
足立 (Adachi),2019-03-05,02:01～03:00,0.0317,0.0276,0.0298,
足立 (Adachi),2019-03-05,01:01～02:00,0.0333,0.0288,0.0307,
足立 (Adachi),2019-03-05,00:01～01:00,0.0343,0.0297,0.0320,
足立 (Adachi),2019-03-04,23:01～24:00,0.0346,0.0307,0.0327,
足立 (Adachi),2019-03-04,22:01～23:00,0.0347,0.0307,0.0328,
足立 (Adachi),2019-03-04,21:01～22:00,0.0341,0.0293,0.0320,
足立 (Adachi),2019-03-04,20:01～21:00,0.0333,0.0289,0.0311,
足立 (Adachi),2019-03-04,19:01～20:00,0.0343,0.0305,0.0321,
足立 (Adachi),2019-03-04,18:01～19:00,0.0351,0.0308,0.0332,
足立 (Adachi),2019-03-04,17:01～18:00,0.0338,0.0294,0.0317,
足立 (Adachi),2019-03-04,16:01～17:00,0.0364,0.0303,0.0334,
足立 (Adachi),2019-03-04,15:01～16:00,0.0414,0.0345,0.0371,
足立 (Adachi),2019-03-04,14:01～15:00,0.0465,0.0364,0.0407,
足立 (Adachi),2019-03-04,13:01～14:00,0.0521,0.0423,0.0460,
足立 (Adachi),2019-03-04,12:01～13:00,0.0511,0.0444,0.0478,
足立 (Adachi),2019-03-04,11:01～12:00,0.0496,0.0420,0.0453,
足立 (Adachi),2019-03-04,10:01～11:00,0.0483,0.0404,0.0446,
足立 (Adachi),2019-03-04,09:01～10:00,0.0453,0.0377,0.0414,
足立 (Adachi),2019-03-04,08:01～09:00,0.0471,0.0395,0.0438,
足立 (Adachi),2019-03-04,07:01～08:00,0.0433,0.0376,0.0405,
足立 (Adachi),2019-03-04,06:01～07:00,0.0448,0.0373,0.0408,
足立 (Adachi),2019-03-04,05:01～06:00,0.0456,0.0374,0.0416,
足立 (Adachi),2019-03-04,04:01～05:00,0.0492,0.0404,0.0436,
足立 (Adachi),2019-03-04,03:01～04:00,0.0493,0.0418,0.0457,
足立 (Adachi),2019-03-04,02:01～03:00,0.0504,0.0441,0.0466,
足立 (Adachi),2019-03-04,01:01～02:00,0.0494,0.0396,0.0447,
足立 (Adachi),2019-03-04,00:01～01:00,0.0466,0.0380,0.0417,
